{"data":{"norad_id":60023,"epoch":"2026-09-21T12:09:21.086784Z","epoch_age_seconds":90623,"freshness":"FRESH","line1":"1 60023U 24111H   26264.50649406 -.00003631  00000+0 -96387-4 0  9995","line2":"2 60023  53.1589 244.6834 0001041  77.5401 282.5718 15.34399057129040","mean_motion":15.34399057,"eccentricity":0.0001041,"inclination_deg":53.1589,"raan_deg":244.6834,"arg_perigee_deg":77.5401,"mean_anomaly_deg":282.5718,"bstar":-9.6387e-5,"rev_number":12904,"period_min":93.847815757619,"perigee_km":461.99391124249,"apogee_km":463.41817476404,"semimajor_km":6840.8430430033,"source":"CELESTRAK","updated_at":"2026-09-22T09:00:49.138647Z"}}